Find Starlink 2578

NORAD ID: 48362 Int'l Des: 2021-038 Owner: SPXS Country: US Constellation: starlink operational
LEOCIRCULAR

現在のビュー

3D地球を読み込み中...

About Starlink 2578

Starlink 2578 (NORAD 48362) is a starlink constellation satellite (v1.0) launched May 4, 2021 by SPXS of US. It operates in LEO, CIRCULAR orbit with a mass of 260.00 kg.

次回通過

Passes for default location (London). Set your location on the main map for personalized predictions.

高度履歴

Loading altitude history...

軌道要素

1 48362U 21038K 26263.77316083 .00001484 00000-0 59592-4 0 9992
2 48362 53.1592 170.2482 0001256 93.2041 266.9104 15.31698848296971
Epoch: Sep 20, 2026 • Age: 21 hours

現在のステータス

高度 476.0 km
遠地点 / 近地点 N/A
速度 7.63 km/s
衛星直下点 51.19°N, 47.35°E
打ち上げ日 May 4, 2021
運用期間 5.3 years
タイプ internet

技術仕様

分類 Payload
質量 260.00 kg
乾燥質量 248.00 kg
長さ 0.20 m
スパン 9.00 m
形状 ? Box + pan
製造者 SPXS
バスタイプ Starlink
フェーズステータス In Orbit
所有者/国 SPXS/US

Most Searched